Wind_Speed
18 20 22 23 24 25 28 30 33 33 35 36 36 38 39 40 42 44 45 47 49 51 53 54 55 56 57 57 56 55 54 52 50 49 48 46 45 43 42 40 38 36 35 34
21 23 24 25 26 27 29 31 33 35 36 37 38 40 42 44 46 48 50 52 54 56 58 59 60 61 60 60 60 59 57 55 54 53 50 48 46 44 42 40 38 36 35 33
22 24 26 27 28 29 31 32 34 36 38 39 40 42 45 48 51 53 55 57 59 61 62 64 65 65 65 64 64 63 61 59 57 55 53 50 48 45 42 40 38 35 34 31
24 25 28 28 29 30 33 35 36 38 40 42 44 46 49 53 56 58 61 62 64 66 68 69 70 70 69 68 67 65 64 62 60 57 54 51 49 45 42 40 38 35 32 29
27 29 31 32 34 36 37 39 41 42 44 46 49 51 53 57 61 64 67 69 70 72 73 73 73 73 71 70 69 67 65 62 59 56 53 49 47 44 41 39 37 35 31 28
30 32 35 37 39 41 43 45 45 47 50 53 57 59 60 63 66 68 70 72 73 74 75 75 74 73 71 69 66 63 60 57 55 52 49 46 44 42 40 38 37 35 32 28
31 34 37 40 41 43 45 48 50 53 56 59 62 64 67 69 71 73 74 75 75 74 74 73 71 69 66 63 60 57 55 53 51 48 46 44 42 41 40 38 36 35 32 28
33 36 39 41 43 45 48 50 53 57 60 63 66 69 71 73 74 75 76 75 74 72 70 66 64 61 58 55 53 51 50 48 46 45 43 42 41 41 40 40 36 35 32 27
36 38 41 43 46 48 51 54 57 61 65 68 71 73 75 75 75 74 72 70 67 64 61 57 54 52 49 47 46 44 43 42 41 41 40 40 41 41 40 39 38 35 31 28
38 40 42 45 48 52 55 59 63 66 70 73 75 75 75 73 69 66 62 59 57 55 52 48 45 43 42 40 39 39 39 39 38 38 38 38 39 40 41 39 37 35 32 29
41 43 45 48 52 56 60 63 67 70 72 73 73 71 67 62 58 55 53 50 48 46 43 40 39 38 38 39 39 38 38 36 36 35 35 35 37 38 39 40 37 34 33 30
44 47 50 53 57 62 65 69 71 73 72 70 67 62 58 54 50 47 45 44 42 41 39 37 37 37 38 38 38 37 36 35 34 31 31 32 34 37 38 38 38 34 34 31
48 51 54 58 62 66 69 71 72 71 68 63 58 54 51 48 45 43 42 41 40 39 38 38 37 37 37 37 36 35 33 32 31 29 28 28 31 34 37 36 37 35 33 31
52 56 59 62 66 68 70 71 69 64 59 55 51 48 46 45 43 42 41 40 40 40 39 39 38 37 36 36 35 34 32 29 27 24 23 23 25 31 35 35 37 35 33 32
55 59 62 65 68 69 69 68 64 58 53 49 47 46 45 44 42 42 41 42 41 40 39 39 38 36 36 35 34 33 30 26 23 20 18 19 24 29 33 36 37 36 35 33
57 61 65 68 69 69 67 64 60 55 50 47 45 45 45 44 44 44 44 44 43 41 40 39 37 35 33 33 32 30 26 21 17 15 16 19 25 29 34 36 36 35 34 33
61 64 67 70 70 69 66 62 58 53 48 46 45 45 46 46 47 46 45 45 44 42 41 38 35 33 31 30 28 24 19 15 13 14 17 21 26 30 34 36 35 34 34 33
64 67 70 71 70 67 63 59 54 50 48 47 47 47 48 49 48 48 47 46 44 41 39 36 32 29 27 24 22 17 13 12 12 15 19 24 27 30 34 35 34 34 33 33
66 68 70 69 67 65 61 56 52 48 47 48 48 49 50 50 50 49 48 45 42 38 34 30 27 24 21 18 15 11 9 10 14 18 21 25 29 32 33 33 33 34 32 30
67 68 69 68 65 62 58 54 50 47 48 49 49 51 52 51 50 47 44 40 37 34 29 26 23 20 16 12 10 8 9 12 17 21 23 27 30 30 31 32 32 33 30 29
67 68 68 66 63 58 55 51 48 48 48 50 51 52 52 50 47 43 39 35 32 30 26 22 18 14 10 8 8 8 11 16 20 24 26 29 30 30 31 31 30 31 29 28
67 67 67 65 61 56 52 49 48 48 48 50 51 50 49 46 43 40 36 32 29 26 21 16 12 8 5 7 10 12 16 21 24 26 28 29 30 30 30 30 29 29 28 27
66 66 65 62 58 53 49 48 47 47 48 50 49 48 46 44 42 39 34 30 25 21 16 11 6 0 5 10 14 18 21 24 26 27 28 30 30 28 28 28 28 27 26 24
65 64 62 59 55 51 48 47 46 45 47 48 47 46 44 42 40 37 33 28 23 18 12 8 6 7 11 15 19 22 25 27 28 28 29 30 29 27 27 27 26 25 24 23
63 62 60 57 53 49 47 45 44 44 44 44 44 43 42 40 38 35 31 27 23 19 14 12 12 14 16 20 24 26 27 28 27 28 29 29 28 27 26 24 24 23 22 20
61 60 58 55 51 47 45 44 42 42 42 42 42 41 39 37 35 31 29 26 23 22 20 19 19 20 23 25 27 27 27 27 27 28 29 29 28 26 24 22 21 20 19 17
59 57 55 51 46 44 43 42 40 40 40 40 40 39 36 34 32 29 28 27 25 24 23 22 22 23 24 25 27 27 27 27 27 28 28 27 26 24 22 20 19 18 17 15
Wind_Direction
301 300 299 298 296 293 293 295 295 296 294 294 293 292 292 292 291 291 291 291 292 292 293 293 294 294 294 294 294 294 294 294 293 293 293 293 293 295 295 295 297 298 298 299
306 303 303 302 300 298 295 294 294 294 293 293 292 292 291 291 291 291 291 291 291 291 291 292 292 292 292 291 292 292 292 291 291 291 290 290 289 290 290 290 292 293 295 296
309 306 305 303 303 300 299 299 298 298 298 297 295 295 294 294 293 293 292 292 291 291 291 291 291 291 290 290 291 291 291 290 289 288 287 286 285 285 285 285 286 288 290 292
310 307 305 306 303 302 302 301 300 299 300 299 298 297 296 294 294 294 293 292 291 291 291 291 291 291 291 291 290 290 290 289 288 286 284 282 280 278 278 278 280 281 282 285
313 311 310 310 310 309 308 306 306 305 303 300 298 297 294 292 292 292 292 291 291 291 291 291 291 291 290 290 290 289 288 287 286 284 281 277 274 272 270 270 272 274 275 278
314 313 313 312 312 312 311 308 307 304 301 299 298 297 296 294 293 293 293 293 292 292 292 292 292 291 291 290 289 288 287 286 284 280 275 272 268 265 261 261 263 265 266 269
315 313 312 313 312 312 308 307 306 304 304 303 302 301 300 299 298 297 296 296 295 294 294 294 293 292 292 291 289 288 287 286 282 277 272 267 263 258 254 252 255 256 257 260
317 316 314 315 313 311 310 309 308 308 307 306 304 303 302 300 300 299 298 297 297 296 296 295 295 294 293 291 290 289 287 285 281 274 269 263 257 252 247 244 246 247 247 250
321 319 318 318 317 315 314 313 312 310 309 308 306 305 304 303 302 301 300 300 299 298 298 297 296 295 294 293 291 290 287 284 280 273 267 262 255 248 242 240 240 238 239 240
323 322 321 320 319 318 317 315 314 312 311 309 308 307 306 306 305 304 304 303 302 301 300 299 297 296 296 295 293 292 289 285 279 273 266 261 253 244 238 233 233 229 229 230
325 325 324 322 321 320 318 317 315 314 313 312 311 310 309 309 308 307 307 306 305 305 304 302 299 298 297 296 295 294 291 286 281 275 266 259 249 240 233 226 223 222 222 222
327 327 326 325 324 322 320 319 318 317 316 315 314 314 314 313 312 311 310 309 308 307 305 304 302 300 298 297 297 296 293 288 282 276 268 258 247 236 227 220 216 217 216 214
328 328 327 326 325 323 321 321 320 319 319 318 319 318 318 318 316 315 313 311 309 308 306 304 302 301 299 298 299 299 296 289 281 275 266 253 240 228 217 211 208 208 210 209
330 329 328 326 325 324 324 324 323 323 322 322 322 322 321 320 318 316 314 312 310 308 307 304 301 300 298 297 299 300 296 290 281 273 258 243 228 214 207 201 200 203 204 203
330 329 328 328 327 327 327 327 326 326 325 325 324 324 323 321 319 317 315 313 311 309 307 305 302 300 298 297 298 299 296 288 278 265 245 226 211 203 199 196 197 197 198 199
330 330 330 330 330 330 330 330 330 330 329 328 327 326 324 323 321 319 317 315 312 310 307 305 303 300 297 296 298 298 293 283 269 245 221 206 199 195 191 190 191 192 193 195
332 333 333 333 333 334 334 333 332 332 331 330 329 328 326 324 322 320 318 316 313 310 307 304 302 299 297 296 296 295 286 270 247 221 202 195 192 189 188 188 188 189 191 193
334 335 335 335 336 336 336 335 334 332 332 331 330 329 327 325 323 322 320 317 315 312 308 304 301 297 296 295 294 289 270 243 220 201 192 188 185 183 184 185 185 187 188 190
336 336 337 337 337 337 336 335 335 334 333 332 331 330 329 326 324 322 321 318 316 314 311 306 301 295 293 290 286 273 241 215 199 190 185 184 181 180 182 181 182 183 184 188
337 338 338 338 338 338 337 336 336 335 334 334 333 332 331 330 328 326 326 324 321 319 315 308 302 293 286 277 266 241 213 196 185 179 176 176 176 178 179 178 180 181 183 186
338 339 339 340 340 339 338 338 337 337 336 336 336 335 335 335 333 333 331 329 327 325 319 311 303 294 276 252 229 201 186 177 172 168 166 168 171 174 176 177 180 182 184 187
339 340 340 340 341 341 340 339 339 338 338 338 339 339 339 339 339 339 337 335 333 330 327 320 310 289 243 206 183 171 166 164 161 159 161 164 167 169 173 177 179 181 184 186
340 340 341 341 342 342 342 341 341 341 342 342 343 344 345 345 345 346 347 344 343 340 339 338 340 84 159 159 159 158 156 156 154 154 158 161 163 166 170 174 177 178 181 184
340 341 341 342 343 343 343 343 344 345 346 346 347 349 351 352 354 356 357 359 359 360 5 22 63 111 132 141 147 148 149 150 150 151 155 158 161 164 166 169 172 175 177 180
340 341 342 343 344 345 345 347 347 349 351 352 354 356 357 359 2 6 9 13 18 27 42 64 88 109 123 134 140 143 145 146 147 150 152 155 157 159 161 164 168 171 174 178
340 341 343 344 345 346 347 349 351 353 355 357 360 2 4 6 10 16 22 29 38 48 60 75 91 106 120 130 134 138 141 142 144 147 149 151 153 155 158 161 164 168 173 178
340 342 343 344 345 346 348 351 353 356 358 1 5 8 10 13 20 27 34 42 50 58 68 81 97 108 117 124 130 134 138 140 142 144 147 149 151 154 156 158 161 166 170 175
Height
5836 5833 5830 5828 5826 5822 5819 5815 5811 5808 5804 5800 5796 5792 5787 5783 5779 5775 5771 5767 5763 5758 5754 5750 5746 5741 5737 5733 5730 5727 5724 5721 5718 5716 5713 5711 5708 5705 5702 5699 5696 5693 5690 5686
5832 5828 5825 5822 5819 5816 5813 5809 5805 5800 5796 5792 5787 5783 5778 5773 5769 5764 5759 5754 5750 5744 5739 5735 5730 5726 5722 5718 5715 5711 5708 5706 5704 5701 5699 5697 5695 5694 5691 5689 5686 5684 5681 5678
5827 5823 5819 5817 5814 5809 5805 5801 5797 5792 5788 5782 5778 5773 5767 5761 5756 5750 5745 5739 5734 5729 5723 5718 5713 5708 5704 5701 5697 5694 5691 5688 5686 5685 5684 5683 5681 5680 5679 5678 5676 5674 5672 5670
5822 5819 5815 5814 5807 5803 5798 5793 5788 5783 5778 5772 5767 5762 5755 5748 5742 5736 5729 5723 5717 5711 5705 5699 5694 5689 5684 5681 5677 5674 5672 5669 5667 5666 5666 5666 5666 5666 5666 5665 5665 5664 5663 5661
5816 5812 5808 5804 5799 5794 5789 5784 5778 5772 5767 5761 5754 5750 5744 5734 5727 5719 5712 5704 5697 5690 5684 5678 5672 5667 5663 5660 5656 5653 5651 5649 5647 5646 5646 5647 5648 5649 5651 5652 5653 5653 5653 5653
5810 5805 5800 5797 5790 5784 5780 5773 5767 5761 5755 5748 5741 5734 5729 5719 5710 5702 5693 5685 5677 5669 5662 5656 5650 5644 5641 5637 5633 5631 5629 5627 5626 5625 5626 5628 5630 5633 5635 5638 5640 5642 5643 5644
5804 5799 5793 5788 5782 5777 5771 5765 5756 5748 5741 5732 5724 5715 5707 5698 5688 5679 5670 5661 5653 5646 5639 5632 5626 5621 5618 5614 5611 5609 5607 5606 5605 5605 5607 5609 5613 5616 5620 5624 5627 5630 5633 5635
5798 5792 5788 5780 5773 5768 5761 5752 5743 5735 5726 5716 5707 5697 5687 5677 5667 5657 5647 5638 5629 5622 5616 5610 5604 5599 5596 5593 5590 5587 5586 5585 5585 5585 5587 5591 5595 5599 5604 5609 5613 5618 5622 5625
5791 5786 5778 5770 5763 5756 5748 5740 5730 5721 5711 5699 5688 5677 5666 5655 5645 5634 5625 5616 5608 5600 5595 5591 5585 5580 5578 5575 5572 5570 5568 5567 5567 5567 5569 5572 5576 5582 5587 5593 5600 5606 5611 5616
5783 5776 5770 5762 5754 5745 5736 5726 5715 5704 5692 5680 5668 5656 5644 5633 5623 5613 5605 5596 5589 5583 5578 5574 5570 5566 5562 5560 5557 5554 5553 5551 5551 5551 5552 5555 5559 5565 5572 5579 5587 5594 5601 5607
5775 5768 5761 5753 5744 5734 5723 5712 5700 5688 5674 5660 5647 5636 5624 5614 5605 5596 5589 5581 5575 5569 5564 5560 5557 5553 5550 5546 5543 5541 5539 5537 5536 5536 5537 5539 5544 5550 5558 5566 5575 5583 5591 5598
5767 5759 5751 5742 5732 5720 5709 5696 5683 5670 5657 5643 5628 5617 5607 5599 5590 5583 5576 5569 5563 5558 5553 5549 5545 5542 5538 5534 5530 5528 5526 5524 5522 5522 5523 5525 5530 5537 5545 5554 5564 5572 5581 5589
5759 5750 5740 5730 5719 5707 5694 5680 5666 5652 5638 5625 5615 5603 5594 5586 5579 5572 5565 5558 5552 5547 5543 5538 5534 5530 5526 5522 5519 5516 5513 5511 5510 5510 5510 5512 5517 5524 5534 5544 5554 5563 5573 5582
5749 5739 5730 5719 5706 5693 5679 5665 5650 5637 5624 5612 5602 5593 5584 5576 5569 5562 5555 5548 5542 5537 5532 5527 5522 5519 5515 5511 5508 5505 5502 5500 5499 5499 5500 5503 5508 5516 5525 5535 5546 5556 5566 5575
5740 5729 5718 5706 5693 5679 5664 5649 5636 5624 5612 5601 5592 5583 5574 5566 5559 5552 5544 5537 5531 5526 5520 5515 5511 5507 5503 5500 5497 5494 5491 5490 5489 5490 5492 5496 5502 5510 5520 5530 5540 5550 5560 5570
5731 5719 5706 5693 5678 5664 5649 5634 5622 5611 5600 5591 5582 5573 5565 5556 5548 5541 5533 5526 5519 5513 5508 5503 5499 5495 5492 5489 5486 5484 5482 5481 5482 5484 5487 5492 5499 5507 5516 5526 5536 5546 5557 5566
5719 5707 5694 5680 5665 5650 5636 5622 5610 5599 5590 5581 5573 5564 5555 5547 5538 5530 5522 5514 5507 5500 5495 5490 5487 5484 5481 5478 5476 5475 5474 5474 5476 5479 5484 5490 5498 5506 5515 5524 5534 5544 5554 5563
5706 5693 5679 5665 5651 5638 5625 5613 5602 5591 5582 5573 5564 5555 5546 5536 5527 5518 5510 5502 5495 5488 5482 5478 5474 5472 5471 5469 5468 5468 5468 5470 5473 5477 5483 5490 5497 5505 5514 5523 5533 5543 5552 5560
5697 5683 5669 5655 5641 5627 5615 5604 5594 5584 5575 5566 5556 5546 5536 5525 5515 5506 5497 5489 5481 5476 5471 5466 5464 5462 5462 5461 5462 5462 5464 5468 5472 5477 5483 5490 5497 5506 5514 5523 5533 5542 5551 5559
5688 5674 5660 5646 5633 5619 5608 5597 5587 5578 5569 5558 5548 5537 5527 5515 5504 5494 5485 5477 5470 5464 5460 5457 5455 5454 5455 5456 5457 5459 5462 5466 5471 5476 5483 5491 5499 5507 5516 5525 5533 5543 5551 5559
5680 5666 5652 5639 5626 5614 5602 5591 5582 5572 5562 5552 5540 5529 5518 5506 5495 5485 5476 5469 5463 5456 5452 5449 5447 5448 5449 5451 5454 5457 5461 5465 5471 5478 5485 5493 5501 5510 5518 5527 5535 5543 5550 5558
5672 5659 5646 5633 5620 5609 5598 5587 5577 5567 5557 5546 5535 5523 5511 5500 5490 5480 5470 5462 5456 5450 5446 5443 5442 5443 5445 5448 5452 5456 5461 5467 5474 5481 5488 5496 5504 5513 5521 5529 5536 5544 5551 5558
5664 5652 5639 5627 5615 5605 5594 5584 5574 5563 5553 5542 5530 5518 5507 5496 5485 5475 5467 5459 5452 5447 5443 5440 5440 5441 5443 5447 5452 5458 5464 5471 5478 5485 5492 5500 5508 5516 5523 5531 5538 5545 5552 5558
5658 5646 5634 5622 5611 5601 5592 5582 5572 5561 5551 5540 5528 5516 5505 5495 5485 5475 5465 5458 5452 5446 5443 5441 5441 5443 5446 5450 5456 5462 5469 5476 5483 5490 5497 5505 5513 5520 5527 5534 5540 5547 5553 5559
5653 5641 5630 5619 5609 5599 5589 5579 5570 5560 5550 5540 5529 5518 5507 5496 5486 5478 5469 5462 5456 5451 5448 5447 5447 5448 5452 5457 5463 5469 5476 5483 5489 5496 5503 5510 5518 5525 5531 5538 5544 5550 5555 5560
5648 5637 5625 5614 5604 5595 5586 5578 5569 5559 5550 5541 5531 5521 5511 5501 5492 5484 5477 5470 5464 5459 5457 5456 5456 5458 5462 5467 5472 5478 5484 5490 5497 5503 5510 5517 5523 5530 5536 5541 5547 5552 5557 5562
5643 5633 5623 5614 5603 5594 5586 5577 5569 5560 5551 5542 5534 5525 5516 5508 5500 5492 5486 5480 5475 5471 5469 5468 5469 5471 5474 5478 5483 5488 5493 5499 5505 5511 5517 5523 5529 5535 5540 5545 5550 5555 5559 5563